Вернуться в каталог

STARLINK-38097

АктивенСвязьSSO
NORAD 100163·PAYLOAD·🇺🇸 United States

Запущен Jul 25, 2026 с Vandenberg Space Force Base

Loading…

Ближайшие Пролёты (ближайшие 24 часа)

TLE

СвежийSource: Space-Track

Эпоха: Sep 14, 2026, 21:45 UTC

1 A0163U 26171R   26257.90660212  .00019111  00000-0  52980-3 0  9995
2 A0163  97.2835 290.5010 0001005  93.3346 266.8014 15.36985051  8049

Отслеживайте STARLINK-38097 в реальном времени с AllMySat

Download on the App Store